GW0844 Weather Reports


Display with metric or nautical units.
time (UTC)temp
F
wind
direction
speed
MPH
gust
MPH
rain 1hr
in
rain 24hr
in
rain mn
in
humidity
%
barometer
mb
20240530074435 50 17 0.0 0.0 0.00 0.00 0.00 100 1022.7
20240530073434 51 16 0.0 0.0 0.00 0.00 0.00 100 1022.7
20240530071435 51 354 0.0 0.0 0.00 0.00 0.00 100 1022.7
20240530070435 51 30 0.0 0.0 0.00 0.00 0.00 100 1022.7
20240530065934 51 9 0.0 0.0 0.00 0.00 0.00 100 1022.7
20240530064935 51 345 0.0 0.0 0.00 0.00 0.00 99 1022.7
20240530063434 52 321 0.0 0.0 0.00 0.00 0.00 99 1022.7
20240530061935 52 21 0.0 0.0 0.00 0.00 0.00 99 1022.7
20240530055435 52 11 0.0 0.0 0.00 0.00 0.00 98 1022.7
20240530054435 53 37 0.0 0.0 0.00 0.00 0.00 98 1023.0
20240530052935 53 66 0.0 0.0 0.00 0.00 0.00 97 1023.0
20240530051935 53 283 0.0 0.0 0.00 0.00 0.00 97 1023.0
20240530051434 53 1 0.0 0.0 0.00 0.00 0.00 97 1023.0
20240530050434 53 32 0.0 0.0 0.00 0.00 0.00 96 1023.0
20240530045435 54 33 0.0 0.0 0.00 0.00 0.00 96 1023.0
20240530043434 54 6 0.0 0.0 0.00 0.00 0.00 95 1023.4
20240530042935 54 345 0.0 0.0 0.00 0.00 0.00 94 1023.4
20240530041935 55 43 0.0 0.0 0.00 0.00 0.00 94 1023.4
20240530041435 55 31 0.0 0.0 0.00 0.00 0.00 94 1023.4
20240530040435 55 43 0.0 0.0 0.00 0.00 0.00 94 1023.0
20240530035435 55 350 0.0 0.0 0.00 0.00 0.00 93 1023.0
20240530034935 55 342 0.0 0.0 0.00 0.00 0.00 93 1023.0
20240530033435 56 43 0.0 0.0 0.00 0.00 0.00 92 1022.7
20240530032435 56 42 0.0 0.0 0.00 0.00 0.00 91 1022.7
20240530031435 56 92 0.0 0.0 0.00 0.00 0.00 90 1022.7
20240530030435 57 351 0.0 0.0 0.00 0.00 0.00 88 1022.7
20240530025935 57 26 0.0 0.0 0.00 0.00 0.00 88 1022.7
20240530024935 57 33 0.0 0.0 0.00 0.00 0.00 86 1022.7
20240530023935 58 53 0.0 0.0 0.00 0.00 0.00 85 1022.4
20240530022435 59 349 0.0 0.0 0.00 0.00 0.00 82 1022.4
20240530015934 60 352 0.0 0.0 0.00 0.00 0.00 78 1022.0
20240530014935 61 54 0.0 0.0 0.00 0.00 0.00 76 1022.0
20240530013935 62 48 0.0 0.0 0.00 0.00 0.00 74 1021.7
20240530013435 63 51 0.0 0.0 0.00 0.00 0.00 73 1021.7
20240530012934 63 318 0.0 0.0 0.00 0.00 0.00 72 1021.7
20240530011935 64 329 0.0 0.0 0.00 0.00 0.00 70 1021.7
20240530011435 65 53 0.0 0.0 0.00 0.00 0.00 69 1021.7
20240530010435 66 315 0.0 0.0 0.00 0.00 0.00 64 1021.3
20240530005935 67 52 0.0 0.0 0.00 0.00 0.00 61 1021.3
20240530005435 67 66 0.0 0.0 0.00 0.00 0.00 60 1021.7
20240530004935 68 290 0.0 0.0 0.00 0.00 0.00 59 1021.3
20240530003435 69 79 0.0 0.0 0.00 0.00 0.00 54 1021.7
20240530002435 70 82 0.0 0.0 0.00 0.00 0.00 54 1021.7
20240530000935 71 43 0.0 0.0 0.00 0.00 0.00 54 1021.3
20240530000434 71 65 0.0 0.0 0.00 0.00 0.00 55 1021.3
20240529234435 73 20 0.0 0.0 0.00 0.00 0.00 58 1021.3
20240529233435 73 356 0.0 0.0 0.00 0.00 0.00 52 1021.3
20240529232434 74 8 0.0 0.0 0.00 0.00 0.00 51 1021.0
20240529231434 74 73 0.0 0.0 0.00 0.00 0.00 52 1021.0
20240529230435 75 32 0.0 0.0 0.00 0.00 0.00 52 1021.0
20240529225435 76 67 0.0 0.0 0.00 0.00 0.00 53 1021.0
20240529224435 76 252 1.0 1.0 0.00 0.00 0.00 52 1021.0
20240529223434 77 58 0.0 0.0 0.00 0.00 0.00 48 1021.0
20240529221935 77 28 1.0 1.0 0.00 0.00 0.00 47 1021.0
20240529220935 78 44 0.0 0.0 0.00 0.00 0.00 51 1021.0
20240529215937 79 83 1.0 1.0 0.00 0.00 0.00 49 1020.7
20240529214935 79 53 1.0 1.0 0.00 0.00 0.00 53 1020.7
20240529213435 79 140 1.0 1.0 0.00 0.00 0.00 48 1020.7
20240529212935 79 113 1.0 1.0 0.00 0.00 0.00 50 1020.7
20240529210935 80 66 2.0 2.0 0.00 0.00 0.00 49 1020.3
20240529205935 80 290 2.0 2.0 0.00 0.00 0.00 46 1020.3
20240529204435 79 237 3.0 3.0 0.00 0.00 0.00 45 1020.3
20240529203934 80 270 3.0 3.0 0.00 0.00 0.00 46 1020.3
20240529202934 79 214 3.0 3.0 0.00 0.00 0.00 45 1020.3
20240529202435 78 180 2.0 2.0 0.00 0.00 0.00 46 1020.3
20240529200435 80 274 1.0 1.0 0.00 0.00 0.00 54 1020.7
20240529195935 78 303 1.0 1.0 0.00 0.00 0.00 51 1020.7
20240529193937 80 47 1.0 1.0 0.00 0.00 0.00 48 1020.7
20240529192935 77 152 1.0 1.0 0.00 0.00 0.00 55 1021.0
20240529192435 77 341 1.0 1.0 0.00 0.00 0.00 53 1021.0
20240529191435 80 264 2.0 2.0 0.00 0.00 0.00 49 1021.0
20240529190935 79 12 1.0 1.0 0.00 0.00 0.00 54 1021.0
20240529190434 80 270 2.0 2.0 0.00 0.00 0.00 51 1021.0
20240529185435 80 325 2.0 2.0 0.00 0.00 0.00 58 1021.0
20240529183435 80 207 1.0 1.0 0.00 0.00 0.00 65 1021.3
20240529182935 79 347 2.0 2.0 0.00 0.00 0.00 51 1021.3
20240529181935 77 284 1.0 1.0 0.00 0.00 0.00 58 1021.7
20240529181435 79 20 2.0 2.0 0.00 0.00 0.00 52 1021.7
20240529180435 76 308 2.0 2.0 0.00 0.00 0.00 53 1021.7
20240529175435 79 268 2.0 2.0 0.00 0.00 0.00 56 1022.0
20240529174434 79 253 2.0 2.0 0.00 0.00 0.00 60 1022.0
20240529173435 78 203 2.0 2.0 0.00 0.00 0.00 51 1022.0
20240529171435 78 46 3.0 3.0 0.00 0.00 0.00 54 1022.4
20240529170435 79 28 1.0 1.0 0.00 0.00 0.00 56 1022.4
20240529165935 79 140 1.0 1.0 0.00 0.00 0.00 53 1022.4
20240529164935 78 265 1.0 1.0 0.00 0.00 0.00 54 1022.4
20240529162934 78 256 1.0 1.0 0.00 0.00 0.00 54 1022.4
20240529161935 79 308 2.0 2.0 0.00 0.00 0.00 59 1022.7
20240529160935 77 238 2.0 2.0 0.00 0.00 0.00 56 1022.7
20240529155934 77 323 1.0 1.0 0.00 0.00 0.00 59 1022.7
20240529154935 78 247 1.0 1.0 0.00 0.00 0.00 60 1022.7
20240529153434 77 209 1.0 1.0 0.00 0.00 0.00 59 1022.7
20240529152435 77 273 1.0 1.0 0.00 0.00 0.00 53 1022.4
20240529151435 77 76 1.0 1.0 0.00 0.00 0.00 63 1022.4
20240529144435 75 180 0.0 0.0 0.00 0.00 0.00 65 1022.4
20240529142935 74 250 0.0 0.0 0.00 0.00 0.00 62 1022.4
20240529140935 73 168 1.0 1.0 0.00 0.00 0.00 75 1022.4
20240529135935 73 160 1.0 1.0 0.00 0.00 0.00 70 1022.4
20240529135434 72 160 1.0 1.0 0.00 0.00 0.00 68 1022.4
20240529134434 71 166 2.0 2.0 0.00 0.00 0.00 73 1022.4
20240529133435 70 147 2.0 2.0 0.00 0.00 0.00 80 1022.4
20240529132935 70 147 2.0 2.0 0.00 0.00 0.00 75 1022.4
20240529131935 69 95 1.0 1.0 0.00 0.00 0.00 76 1022.4
20240529130935 69 95 0.0 0.0 0.00 0.00 0.00 82 1022.4
20240529130435 68 95 0.0 0.0 0.00 0.00 0.00 81 1022.4
20240529125935 67 95 0.0 0.0 0.00 0.00 0.00 91 1022.4
20240529124934 66 95 0.0 0.0 0.00 0.00 0.00 93 1022.4
20240529123935 65 95 0.0 0.0 0.00 0.00 0.00 92 1022.0
20240529122934 63 95 0.0 0.0 0.00 0.00 0.00 94 1022.0
20240529122435 62 95 0.0 0.0 0.00 0.00 0.00 95 1022.0
20240529121934 62 95 0.0 0.0 0.00 0.00 0.00 97 1021.7
20240529121435 61 95 0.0 0.0 0.00 0.00 0.00 98 1022.0
20240529115435 59 16 0.0 0.0 0.00 0.00 0.00 100 1021.7
20240529114935 59 180 0.0 0.0 0.00 0.00 0.00 100 1022.0
20240529111935 55 70 0.0 0.0 0.00 0.00 0.00 100 1021.7
20240529111434 55 58 0.0 0.0 0.00 0.00 0.00 100 1021.7
20240529104935 53 26 0.0 0.0 0.00 0.00 0.00 100 1021.7
20240529103934 53 333 0.0 0.0 0.00 0.00 0.00 100 1021.3
20240529102935 53 66 0.0 0.0 0.00 0.00 0.00 100 1021.7
20240529102434 53 226 0.0 0.0 0.00 0.00 0.00 100 1022.0
20240529101935 53 20 0.0 0.0 0.00 0.00 0.00 100 1021.7
20240529101434 53 32 0.0 0.0 0.00 0.00 0.00 100 1021.3
20240529094934 53 62 0.0 0.0 0.00 0.00 0.00 100 1021.0
20240529092935 54 26 0.0 0.0 0.00 0.00 0.00 100 1020.0
20240529091935 54 61 0.0 0.0 0.00 0.00 0.00 100 1019.6
20240529091434 54 65 0.0 0.0 0.00 0.00 0.00 100 1019.6
20240529084435 54 79 0.0 0.0 0.00 0.00 0.00 100 1020.0
20240529083435 54 65 0.0 0.0 0.00 0.00 0.00 100 1020.3
20240529082935 54 84 0.0 0.0 0.00 0.00 0.00 100 1020.0
20240529080435 55 347 0.0 0.0 0.00 0.00 0.00 100 1020.0
20240529075435 55 347 0.0 0.0 0.00 0.00 0.00 100 1020.0
20240529074935 55 23 0.0 0.0 0.00 0.00 0.00 100 1020.0